User: anonymous   Login
Location: Unspecified
(0.0000°N, 0.0000°E)
Time: 19:44:50
(UTC+00:00)
Language:

Kyokko - Orbit

View from above orbital plane
View from above orbital plane
View from above satellite
View from above satellite

Ground track
Ground track

The orbit data is extracted from the following two-line orbital elements,

1 10664U 78014A   17269.53280155 -.00000032  00000-0  59570-5 0  9998
2 10664  65.3737 110.1249 1894299  67.5433 311.4640 10.75470464555527
Epoch (UTC): 26 September 2017 12:47:14
Eccentricity: 0.1894299
inclination: 65.3737°
perigee height: 649 km
apogee height: 3934 km
right ascension of ascending node: 110.1249°
argument of perigee: 67.5433°
revolutions per day: 10.75470464
mean anomaly at epoch: 311.4640°
orbit number at epoch: 55552

The dashed part of the orbit path shows where the satellite is in the earth's shadow,  

DLR